Regional Weather Roundup
Issued by NWS San Diego, CA

Home | Current Version | Previous Version | Text Only | Print | Product List | Glossary On
Versions: 1 2 3 4 5 6 7 8 9 10 11 12 13 14 15 16 17 18 19 20 21 22 23 24 25 26 27 28 29 30 31 32 33 34 35 36 37 38 39 40 41 42 43 44 45 46 47
000
ASUS46 KSGX 121411
RWRSGX

SAN DIEGO HOURLY WEATHER ROUNDUP
NATIONAL WEATHER SERVICE SAN DIEGO CA
600 AM PST FRI FEB 12 2016

NOTE: "FAIR" INDICATES FEW OR NO CLOUDS BELOW 12,000 FEET WITH NO
SIGNIFICANT WEATHER AND/OR OBSTRUCTIONS TO VISIBILITY.

CAZ042-043-060-061-PZZ750-775-121500-

GREATER SAN DIEGO AREA

CITY           SKY/WX    TMP DP  RH WIND       PRES   REMARKS
LINDBERGH FLD  PTCLDY    59  34  39 CALM      30.09S
POINT LOMA       N/A     62  28  28 E5          N/A
NATIONAL CITY    N/A    N/A N/A N/A CALM      30.09R
CHULA VISTA      N/A     50  38  65 CALM      30.01R
IMPERIAL BEACH CLEAR     55  32  41 NE8       30.08R
BROWN FIELD    CLEAR     55  28  35 SE6       30.08S
MIRAMAR MCAS   CLEAR     59  31  34 E8        30.08S
MONTGOMERY FLD CLEAR     56  33  42 NE5       30.09R

$$

NORTH SAN DIEGO COUNTY

CITY           SKY/WX    TMP DP  RH WIND       PRES   REMARKS
CAMP PENDLETON CLEAR     41  36  82 CALM      30.09R
OCEANSIDE AP   CLEAR     44  33  65 NE5       30.08S
OCEANSIDE HBR    N/A     53  38  56 CALM      30.11R
VISTA            N/A     50  35  57 CALM      30.07S
CARLSBAD       CLEAR     58  32  37 E5        30.07S
DEL MAR          N/A     59  35  40 CALM      30.10S
FALLBROOK        N/A     58  32  36 CALM      30.09R
ESCONDIDO        N/A     48  35  60 CALM      30.10S
SAN MARCOS       N/A     64  32  30 E1        30.06S
POWAY            N/A     44  36  74 CALM      30.11R

$$

EAST SAN DIEGO COUNTY

CITY           SKY/WX    TMP DP  RH WIND       PRES   REMARKS
RAMONA         CLEAR     39  31  72 SE3       30.12R
SANTEE LAKES     N/A     46  38  74 N3        30.09R
LA MESA          N/A     59  30  33 CALM      30.02R
JAMUL            N/A     55  32  42 NW2       30.09S
DESCANSO N       N/A     47  16  28 E3        30.03R
MT. LAGUNA OBS   N/A     58 -12   5 E2        29.82S
CAMPO            N/A     39  18  42 NE5       30.15S

$$

ORANGE COUNTY AND THE LOS ANGELES BASIN

CITY           SKY/WX    TMP DP  RH WIND       PRES   REMARKS
JOHN WAYNE AP  CLEAR     52  38  58 CALM      30.08S
LAGUNA BEACH     N/A     45  35  68 CALM      30.04S
LAKE FOREST FR   N/A     59  25  27 CALM      29.97R
HUNTINGTON BCH   N/A     45  43  94 CALM      30.11R
LOS ALAMITOS   FAIR      47  42  80 CALM      30.09R
FULLERTON      CLEAR     50  39  66 CALM      30.08R
LONG BEACH     CLEAR     52  42  69 CALM      30.09R
L.A. AP        PTCLDY    57  39  51 E5        30.09R
L.A. DOWNTOWN  CLEAR     58  37  45 CALM      30.08S

$$

THE INLAND EMPIRE

CITY           SKY/WX    TMP DP  RH WIND       PRES   REMARKS
CORONA         CLEAR     39  35  86 CALM      30.12R
CHINO          CLEAR     49  38  65 CALM      30.12R
ONTARIO        CLEAR     54  34  46 NE5       30.11R
RIVERSIDE AP   CLEAR     54  31  41 NE5       30.11S
MORENO VALLEY    N/A     59  32  35 CALM      28.23R
MARCH ARB      CLEAR     37  29  74 N1        30.13R
HORSETHIEF CYN   N/A     56  26  31 CALM      30.12S
PERRIS           N/A     48  35  60 CALM      30.17S
HEMET EAST       N/A     58  14  17 CALM      30.00R
FRENCH VALLEY  FAIR      45  32  61 N3        30.13S
TEMECULA         N/A     46  39  77 CALM      30.10S

$$

SAN BERNARDINO AND RIVERSIDE COUNTY MOUNTAINS

CITY           SKY/WX    TMP DP  RH WIND       PRES   REMARKS
BIG BEAR AP    CLEAR     21  18  86 CALM      30.39R
ANGELUS OAKS     N/A     45  20  36 CALM      30.12S
PINE COVE        N/A     57  -4   8 CALM      30.09F

$$

SOUTHERN DESERT INCLUDING THE COACHELLA VALLEY

CITY           SKY/WX    TMP DP  RH WIND       PRES   REMARKS
PALM SPRINGS   CLEAR     57  26  30 NW9       30.13R
THOUSAND PALMS   N/A     53  26  35 W2        30.10R
PALM DESERT      N/A     50  35  55 CALM        N/A
THERMAL        CLEAR     46  31  55 N3        30.10R
BLYTHE         CLEAR     50  24  36 NW5       30.14R
IMPERIAL AP    CLEAR     50  27  40 SW5       30.10R
EL CENTRO NAS  PTCLDY    50  21  32 SW7       30.12R
YUMA AZ        CLEAR     56  29  35 N5        30.10

$$

UPPER DESERT

CITY           SKY/WX    TMP DP  RH WIND       PRES   REMARKS
VICTORVILLE AP CLEAR     37  25  60 CALM      30.23R
HESPERIA         N/A     42  27  54 CALM      30.34R
APPLE VALLEY     N/A     32  23  67 CALM      30.26S
PALMDALE       CLEAR     36  27  69 SW3       30.24R
LANCASTER      CLEAR     32  25  75 CALM      30.24R
EDWARDS AFB    CLEAR     33  23  66 SW2       30.22R
DAGGETT        CLEAR     44  23  43 W9        30.22R
29 PALMS N     CLEAR     46  20  35 W9        30.27R
NEEDLES        CLEAR     50  25  37 SW5       30.17R

$$

REGIONAL REPORTS

CITY           SKY/WX    TMP DP  RH WIND       PRES   REMARKS
SANTA BARBARA  PTCLDY    45  41  86 CALM      30.09R
SANDBERG       CLEAR     55  25  31 NE8       30.27S
LAS VEGAS NV   CLEAR     48  21  34 SW5       30.21R
PHOENIX AZ     CLEAR     57  34  41 E7        30.14R
TIJUANA        CLEAR     59  21  23 SE8       30.10S
ENSENADA NW      N/A     64  32  30 CALM      30.04S

$$

OFFSHORE ISLANDS

CITY           SKY/WX    TMP DP  RH WIND       PRES   REMARKS
CATALINA ARPT  CLEAR     69  19  15 W5        30.14R
SAN NICOLAS IS CLEAR    N/A N/A N/A CALM      30.09R

$$

MARINE AND OFFSHORE BUOY REPORTS

STATION/POSITION SKY/WX   TEMP    WIND        PRES    SWELL
                          AIR SEA DIR/SP/G            HT/PER/DIR
                          (F)     (DEG/KT/KT) (MB)    (FT/S/D)
TANNER BANKS               53 60  310/  6/ 10 1019.2R  10/320/19
S CLEMENTE BASIN           61 61  310/  8/  8 1018.4R   7/280/21
SAN NICOLAS IS.               58                N/A    10/290/20
SO. S. ROSA ISLA           54 59              1018.6R
W. S. BARBARA CH           55 58  320/ 17/ 21 1018.1R  10/300/19
M. S. BARBARA CH           58 59  210/  4/  6 1019.3R
S. MONICA BASIN            59 60  360/  6/  8 1019.0R   5/230/21
S PEDRO CHANNEL               60                N/A     3/270/20
DANA POINT                    60                N/A     2/270/20
OCEANSIDE OFFSHR              61                N/A     3/220/13
TORREY PINES OTR              61                N/A     3/270/13
LA JOLLA 1                 61 60   CALM  /  1 1018.2S
SAN DIEGO BAY                 61              1019.0R
POINT LOMA SOUTH              61                N/A     3/270/20

$$




USA.gov is the U.S. government's official web portal to all federal, state and local government web resources and services.